Location: Bakov nad Jizerou
(50.4784°N, 14.9394°E)
Time: 09:28:12
(UTC+00:00)

Cosmos 2278 Rocket - Pass Details

Date: 16 June 2021
Orbit: 840 x 847 km, 71.0° (Epoch: 04 August)

Event Time Altitude Azimuth Distance (km) Brightness Sun altitude
Rises 20:22:30 0° 332° (NNW) 3,411 7.6 -8.3°
Reaches altitude 10° 20:25:23 10° 345° (NNW) 2,474 5.9 -8.5°
Maximum altitude 20:30:05 26° 42° (NE) 1,614 3.8 -9.0°
Drops below altitude 10° 20:34:46 10° 98° (E) 2,468 4.2 -9.4°
Enters shadow 20:36:32 - 107° (ESE) 3,032 4.6 -9.5°
